Total_Precipitation_Accumulation
0.00 0.00 0.01 0.01 0.01 0.02 0.03 0.07 0.15 0.17 0.16 0.23 0.37 0.62 0.74 0.70 0.71 0.74 0.86 1.09 1.13 1.19 1.42 1.81 2.34 2.74 3.27 4.09 4.57 4.63 4.23 3.40 2.79 2.32 2.09 1.87 1.63 1.44 1.24 1.03 0.87 0.75 0.74 0.68
0.01 0.02 0.02 0.01 0.01 0.03 0.05 0.09 0.17 0.16 0.12 0.14 0.34 0.65 0.73 0.77 0.81 0.74 0.79 0.91 0.85 0.95 1.26 1.81 2.48 3.06 3.40 3.79 3.99 3.89 3.36 2.58 2.06 1.73 1.55 1.34 1.16 0.96 0.86 0.72 0.65 0.60 0.58 0.57
0.02 0.03 0.02 0.01 0.02 0.04 0.08 0.09 0.14 0.17 0.13 0.15 0.34 0.75 0.87 0.83 0.80 0.75 0.63 0.64 0.75 0.91 1.46 2.18 2.91 3.37 3.43 3.30 2.93 2.53 2.18 1.74 1.54 1.43 1.25 1.09 1.01 0.84 0.68 0.50 0.44 0.42 0.38 0.36
0.02 0.03 0.02 0.02 0.04 0.05 0.09 0.07 0.05 0.07 0.11 0.32 0.45 0.86 0.93 0.92 0.86 0.66 0.59 0.67 0.78 1.00 1.59 2.26 2.74 2.79 2.74 2.46 2.01 1.76 1.62 1.42 1.23 1.14 1.11 0.94 0.77 0.69 0.56 0.46 0.40 0.35 0.30 0.28
0.02 0.03 0.03 0.03 0.04 0.05 0.05 0.04 0.04 0.08 0.18 0.34 0.47 0.74 0.96 0.92 0.96 0.57 0.45 0.54 0.64 0.86 1.16 1.34 1.49 1.50 1.48 1.33 1.36 1.40 1.42 1.40 1.25 1.11 1.05 0.98 0.77 0.66 0.59 0.56 0.49 0.42 0.35 0.30
0.03 0.03 0.03 0.03 0.03 0.04 0.04 0.06 0.12 0.21 0.36 0.70 0.69 0.79 1.06 1.00 0.83 0.43 0.26 0.32 0.51 0.62 0.63 0.65 0.66 0.70 0.82 0.75 0.85 0.98 1.00 1.11 1.15 1.10 0.98 0.92 0.78 0.69 0.63 0.58 0.47 0.39 0.32 0.30
0.09 0.07 0.05 0.05 0.05 0.06 0.05 0.09 0.31 0.63 0.97 1.03 0.61 0.69 1.04 0.95 0.62 0.32 0.19 0.16 0.22 0.34 0.44 0.51 0.54 0.62 0.72 0.59 0.59 0.71 0.75 0.76 0.81 0.80 0.76 0.77 0.78 0.71 0.60 0.52 0.44 0.35 0.26 0.24
0.15 0.14 0.09 0.06 0.06 0.06 0.06 0.07 0.18 0.34 0.43 0.57 0.59 1.05 1.21 0.64 0.34 0.20 0.13 0.10 0.13 0.21 0.28 0.33 0.37 0.44 0.52 0.43 0.42 0.53 0.61 0.59 0.57 0.56 0.55 0.58 0.65 0.57 0.50 0.52 0.44 0.35 0.28 0.24
0.06 0.08 0.07 0.07 0.07 0.07 0.06 0.05 0.07 0.09 0.16 0.40 0.74 1.04 0.91 0.45 0.29 0.15 0.11 0.10 0.10 0.13 0.15 0.18 0.19 0.23 0.29 0.30 0.32 0.39 0.48 0.49 0.44 0.45 0.45 0.43 0.51 0.52 0.48 0.47 0.42 0.36 0.37 0.30
0.04 0.03 0.05 0.05 0.07 0.07 0.06 0.06 0.07 0.10 0.18 0.36 0.64 0.99 1.02 0.58 0.33 0.18 0.14 0.14 0.11 0.11 0.12 0.11 0.11 0.12 0.15 0.20 0.29 0.36 0.42 0.45 0.42 0.41 0.40 0.33 0.36 0.46 0.53 0.49 0.42 0.40 0.40 0.34
0.03 0.02 0.05 0.05 0.07 0.08 0.09 0.08 0.10 0.10 0.11 0.21 0.48 0.68 0.49 0.37 0.29 0.24 0.19 0.15 0.11 0.10 0.12 0.10 0.06 0.05 0.08 0.15 0.21 0.26 0.36 0.45 0.44 0.42 0.45 0.43 0.40 0.39 0.46 0.52 0.52 0.50 0.48 0.39
0.03 0.03 0.04 0.08 0.10 0.10 0.11 0.11 0.12 0.13 0.12 0.12 0.24 0.35 0.30 0.36 0.38 0.30 0.22 0.17 0.11 0.10 0.10 0.08 0.06 0.05 0.07 0.10 0.14 0.20 0.26 0.38 0.40 0.42 0.45 0.45 0.46 0.41 0.42 0.48 0.51 0.50 0.53 0.51
0.03 0.04 0.06 0.15 0.21 0.17 0.12 0.11 0.12 0.12 0.10 0.11 0.25 0.36 0.30 0.27 0.30 0.25 0.24 0.20 0.14 0.13 0.13 0.10 0.12 0.13 0.12 0.14 0.17 0.23 0.28 0.36 0.46 0.46 0.46 0.47 0.49 0.45 0.44 0.51 0.53 0.50 0.55 0.59
0.04 0.04 0.06 0.15 0.24 0.27 0.20 0.13 0.12 0.10 0.08 0.09 0.15 0.31 0.30 0.29 0.26 0.29 0.32 0.26 0.23 0.18 0.14 0.10 0.11 0.13 0.15 0.19 0.23 0.28 0.40 0.37 0.37 0.46 0.50 0.49 0.50 0.52 0.50 0.53 0.56 0.56 0.60 0.62
0.04 0.04 0.04 0.05 0.09 0.14 0.19 0.17 0.13 0.09 0.06 0.08 0.11 0.21 0.27 0.35 0.30 0.28 0.31 0.28 0.27 0.20 0.15 0.14 0.14 0.14 0.21 0.25 0.29 0.34 0.35 0.46 0.53 0.62 0.65 0.63 0.67 0.72 0.71 0.69 0.69 0.65 0.63 0.63
0.07 0.06 0.04 0.04 0.07 0.10 0.13 0.16 0.11 0.08 0.07 0.06 0.09 0.20 0.27 0.28 0.23 0.25 0.26 0.29 0.26 0.22 0.19 0.20 0.22 0.22 0.22 0.25 0.31 0.36 0.39 0.48 0.61 0.77 0.82 0.83 0.94 0.98 0.98 0.97 0.99 0.93 0.85 0.88
0.13 0.10 0.08 0.07 0.10 0.11 0.15 0.14 0.12 0.12 0.10 0.10 0.14 0.23 0.25 0.29 0.31 0.42 0.43 0.40 0.41 0.34 0.32 0.32 0.33 0.31 0.28 0.28 0.32 0.38 0.44 0.56 0.70 0.86 1.01 1.09 1.18 1.27 1.31 1.32 1.29 1.20 1.19 1.22
0.19 0.19 0.16 0.12 0.15 0.20 0.17 0.17 0.15 0.16 0.18 0.17 0.22 0.29 0.36 0.46 0.52 0.61 0.64 0.53 0.46 0.39 0.34 0.32 0.39 0.39 0.35 0.39 0.46 0.54 0.64 0.77 0.92 1.06 1.22 1.38 1.37 1.37 1.39 1.39 1.30 1.28 1.34 1.36
0.21 0.25 0.25 0.22 0.23 0.21 0.21 0.25 0.25 0.27 0.34 0.35 0.40 0.47 0.57 0.61 0.53 0.51 0.46 0.39 0.32 0.30 0.31 0.31 0.36 0.43 0.49 0.48 0.53 0.62 0.65 0.74 0.91 1.05 1.12 1.19 1.26 1.34 1.41 1.40 1.42 1.44 1.42 1.30
0.30 0.31 0.39 0.35 0.36 0.35 0.34 0.39 0.35 0.35 0.62 0.59 0.54 0.56 0.59 0.61 0.70 0.61 0.46 0.38 0.34 0.30 0.28 0.29 0.30 0.34 0.42 0.51 0.54 0.57 0.64 0.76 0.90 1.02 1.05 1.03 1.12 1.25 1.36 1.41 1.42 1.39 1.35 1.30
0.49 0.52 0.50 0.49 0.50 0.42 0.40 0.35 0.33 0.53 0.70 0.62 0.63 0.66 0.67 0.73 0.76 0.67 0.51 0.42 0.36 0.34 0.31 0.30 0.32 0.32 0.37 0.46 0.52 0.61 0.70 0.76 0.80 0.88 0.97 1.03 1.15 1.26 1.32 1.38 1.38 1.38 1.38 1.40
0.57 0.61 0.61 0.62 0.74 0.71 0.53 0.42 0.55 0.69 0.59 0.67 0.70 0.64 0.64 0.62 0.54 0.48 0.44 0.48 0.44 0.37 0.35 0.35 0.39 0.42 0.42 0.43 0.47 0.54 0.56 0.56 0.61 0.66 0.71 0.75 0.87 1.00 1.07 1.17 1.19 1.24 1.22 1.18
0.70 0.69 0.70 0.79 0.85 0.70 0.62 0.63 0.65 0.62 0.55 0.58 0.64 0.63 0.63 0.63 0.55 0.42 0.38 0.38 0.45 0.45 0.41 0.40 0.41 0.40 0.40 0.41 0.45 0.51 0.53 0.53 0.53 0.53 0.54 0.56 0.63 0.79 0.94 1.00 0.99 1.02 1.04 1.02
0.80 0.66 0.73 0.93 0.96 0.86 0.80 0.75 0.65 0.63 0.60 0.55 0.60 0.70 0.69 0.65 0.55 0.46 0.39 0.31 0.28 0.28 0.27 0.32 0.34 0.36 0.36 0.35 0.37 0.41 0.43 0.47 0.53 0.53 0.53 0.55 0.59 0.72 0.96 1.10 1.06 1.00 0.99 0.96
0.73 0.76 0.79 0.94 1.04 0.89 0.80 0.76 0.75 0.71 0.66 0.62 0.63 0.70 0.70 0.58 0.52 0.47 0.38 0.28 0.23 0.20 0.18 0.20 0.24 0.25 0.24 0.24 0.26 0.31 0.37 0.45 0.48 0.45 0.43 0.43 0.50 0.64 0.86 1.03 1.03 0.91 0.89 0.87
0.59 0.69 0.77 0.89 0.86 0.89 0.90 0.84 0.78 0.79 0.78 0.72 0.68 0.73 0.70 0.58 0.47 0.39 0.30 0.22 0.20 0.19 0.17 0.19 0.23 0.25 0.26 0.27 0.31 0.35 0.41 0.48 0.53 0.51 0.46 0.46 0.49 0.57 0.78 0.99 1.05 0.86 0.70 0.69